Regional Weather Roundup
Issued by NWS

Home | Current Version | Previous Version | Text Only | Print | Product List | Glossary On
Versions: 1 2 3 4 5 6 7 8 9 10 11 12 13 14 15 16 17 18 19 20 21 22 23 24 25 26 27 28 29 30 31 32 33 34 35 36 37 38 39 40 41 42 43 44 45 46 47 48 49 50
800
ASUS44 KJAN 192310
RWRMS

MISSISSIPPI HOURLY WEATHER ROUNDUP
NATIONAL WEATHER SERVICE JACKSON MS
500 PM CST WED NOV 19 2014

NOTE: "FAIR: INDICATES FEW OR NO CLOUDS BELOW 12,000 FEET WITH NO
SIGNIFICANT WEATHER AND/OR OBSTRUCTIONS TO VISIBILITY.

MSZ001>002-007>008-010>013-018>021-025>028-034>036-200000-
NORTHWEST MISSISSIPPI

CITY           SKY/WX    TMP DP  RH WIND       PRES   REMARKS
CLARKSDALE     FAIR      50  36  57 S12       30.16S
CLEVELAND      FAIR      50  39  66 S12       30.17F
GREENWOOD      CLEAR     49  29  46 SW9       30.20S
GREENVILLE     CLEAR     52  33  48 S12       30.17F
GRENADA        FAIR      50  28  43 CALM        N/A
OLIVE BRANCH   PTCLDY    46  34  61 S14G20    30.13R
OXFORD         FAIR      48  28  46 SW7       30.18R
TUNICA         CLEAR     50  34  53 S15       30.14S
$$

MSZ003>006-009-014>017-022>024-029>033-037>039-200000-
NORTHEAST MISSISSIPPI

CITY           SKY/WX    TMP DP  RH WIND       PRES   REMARKS
COLUMBUS AFB   MOCLDY    51  18  27 SW6       30.21S
CORINTH        FAIR      52  27  37 SW7G21    30.13S
GOLDN TRIANGLE PTCLDY    50  21  32 S9        30.21F
STARKVILLE       N/A    N/A N/A N/A MISG        N/A
TUPELO         CLEAR     51  22  31 SW6       30.17S
$$

MSZ040-058-200000-
CENTRAL MISSISSIPPI

CITY           SKY/WX    TMP DP  RH WIND       PRES   REMARKS
JACKSON INTL   PTCLDY    53  21  28 S8        30.24S
JACKSON HAWKNS CLEAR     54  22  28 S8        30.23F
MERIDIAN KEY   CLEAR     47  22  37 S5        30.26S
MERIDIAN NAS   CLEAR     51  20  29 S5        30.25F
RAYMOND        FAIR      54  48  82 S5        30.24R
VICKSBURG      CLEAR     55  26  32 VRB5      30.24S
$$

MSZ059>079-200000-
SOUTH MISSISSIPPI

CITY           SKY/WX    TMP DP  RH WIND       PRES   REMARKS
BROOKHAVEN     FAIR      54  23  30 S5        30.27S
COLUMBIA       MOCLDY    54  23  30 MISG        N/A
HATTIESBURG    CLEAR     54  22  28 SW5       30.29S
MCCOMB         MOCLDY    54  24  31 S5        30.27S
NATCHEZ        CLEAR     55  25  30 S8        30.27R
PINE BELT      CLEAR     54  21  28 S3        30.28F
$$

MSZ080>082-200000-
COASTAL MISSISSIPPI

CITY           SKY/WX    TMP DP  RH WIND       PRES   REMARKS
BAY ST LOUIS   CLEAR     48  34  57 S7        30.33S
BILOXI         CLEAR     48  34  58 SE3       30.33R
PASCAGOULA     CLEAR     46  26  45 CALM      30.34R
GULFPORT       CLEAR     47  37  68 CALM      30.33S
$$



USA.gov is the U.S. government's official web portal to all federal, state and local government web resources and services.